{"data":{"norad_id":69239,"epoch":"2026-09-19T10:37:12.612576Z","epoch_age_seconds":118271,"freshness":"FRESH","line1":"1 69239U 26117B   26262.44250709  .00011006  00000+0  33636-3 0  9996","line2":"2 69239  53.1601 158.7589 0000765 118.1924 241.9156 15.34402059 17508","mean_motion":15.34402059,"eccentricity":7.65e-5,"inclination_deg":53.1601,"raan_deg":158.7589,"arg_perigee_deg":118.1924,"mean_anomaly_deg":241.9156,"bstar":0.00033636,"rev_number":1750,"period_min":93.847632147892,"perigee_km":462.17379662182,"apogee_km":463.22044424225,"semimajor_km":6840.834120432,"source":"CELESTRAK","updated_at":"2026-09-20T09:00:44.147406Z"}}